Tracking 31027 objects as of 19-Jul-2025
HD Live streaming from Space Station
objects crossing your sky now

SL-19 DEB

Track SL-19 DEB now!
10-day predictions


NORAD ID: 23564
Int'l Code: 1994-085V
Perigee: 1,836.0 km
Apogee: 2,150.7 km
Inclination: 65.0 °
Period: 126.9 minutes
Semi major axis: 8364 km
RCS: 0.0721 m2 (small)
Launch date: December 26, 1994
Source: Commonwealth of Independent States (former USSR) (CIS)
Launch site: TYURATAM MISSILE AND SPACE COMPLEX (TTMTR)

Note: This is SATELLITE DEBRIS
Your satellite tracking list
STARLINK-5129
Track 1 satellite(s)




NASA's NSSDC Master Catalog

Two Line Element Set (TLE):
1 23564U 94085V   25199.77735590 -.00000013  00000-0  76723-3 0  9998
2 23564  64.9987 330.3480 0188116 150.8993 358.8350 11.34887856250332
Source of the keplerian elements: AFSPC